Вернуться в каталог

STARLINK-2188

АктивенСвязьVLEO
NORAD 48563·PAYLOAD·🇺🇸 United States

Запущен May 15, 2021 с Cape Canaveral Space Force Station

Loading…

Ближайшие Пролёты (ближайшие 24 часа)

TLE

СвежийSource: CelesTrak SupGP

Эпоха: Sep 14, 2026, 20:56 UTC

1 48563C 21041L   26257.87270833 -.00027641  00000+0 -88882-3 0  2579
2 48563  53.1603 326.3187 0001329  71.3723 347.5692 15.31717481    19

Отслеживайте STARLINK-2188 в реальном времени с AllMySat

Download on the App Store